Showing default

HULIANWANG DIGUI-12, 62972

Orbit data source: Space-Track

HULIANWANG DIGUI-12, 62972 is a payload satellite owned by Zhongguo Xingwang (CN) in LEO that was launched on Tue, 11 Feb 2025 UTC via a CHANG ZHENG 8A launch vehicle from the Wenchang Satellite Launch Center (WSC). Payload-class satellites include a variety of spacecraft equipped with specific instruments for various scientific and technological missions. These include communications satellites like Starlink; space stations such as the ISS; scientific satellites like the Hubble; Earth observation satellites from companies like Planet Labs, Umbra, and HawkEye 360; GPS; miniature CubeSats for education and research; and military/defense satellites.

Loading next visibility...
Identifier
62972, 2025-030B
Orbit
LEO
Country
Flag of CNCN / PRC
Related business
Manufacturer
CAST
Mission
Operational Civil Communications
Bus & Motor
GUOWANG C, Unknown motor
Mass
~800 kg wet, ~800 kg dry
Launch date (UTC)
2025-02-11 (8 months ago)
Launch vehicle
CHANG ZHENG 8A
Launch site
Wenchang Satellite Launch Center (WSC)
Object type
Payload
Rocket body
Debris
Shape & HBR
Box + 2 Pan, 2.2 m
Radar Cross Section
5.935 m², Large (>1 m²)

Expand to show TLE details & history
Last TLE update: 6 days ago

TLE from 6 days ago
0 HULIANWANG DIGUI-12
1 62972U 25030B   25284.70096887 -.00000095  00000-0  62961-4 0  9995
2 62972  50.0034  47.1912 0001230 132.4252 227.6724 13.29333180 32805
Epoch: 2025-10-11T16:49Z
TLE epoch observation values (Epoch: 2025-10-11T16:49:23.710Z)
Latitude
-0.00004°
Longitude
134.3137°
Altitude
1,150.409 km
Speed
7.279 km/s
True Right ascension
03h 08m 45s
True Declination
0° 00' 00"
Sunlit
Object was in full shadow at epoch
Visualization orbit readout
Latitude
Unknown
Longitude
Unknown
Altitude
Unknown
Speed
Unknown
Apparent Right ascension
Unknown
Apparent Declination
Unknown
Sunlit
N/A
Visualization observer readout
Local Sidereal Time
22:19:54
Azimuth
Unknown
Elevation
Unknown
Doppler factor
Unknown
Orbital elements
Apogee altitude
1,150.91 km
Perigee altitude
1,149.058 km
Semi-major axis
7,528.121 km
Eccentricity
0.00012
Inclination
50.0034°
RAAN
47.1912°
Arg. of periapsis
132.4252°
True anomaly
227.66198°
Mean anomaly
227.6724°
Eccentric anomaly
227.66719°
Mean motion
3.32287 °/min
Orbital period
108.34 mins
BSTAR
0.000062961
Loading maneuver chart data...
Computing Atmospheric mass density...
Loading historical data...
Loading historical data...
Loading historical data...
Loading historical data...
Loading historical data...
Loading historical data...
Loading historical data...

Documentation

Showing up to 5 results
|